Jackson Hawkins Field, MS

12:53 PM CDT on September 23, 2019 (GMT -0500)
Hawkins

Weather History for KHKS - July, 2019

Change the Weather History Date:

Saturday, July 13, 2019

  Actual Average (KJAN) Record (KJAN)
Temperature  
Mean Temperature 78 °F -  
Max Temperature 84 °F 92 °F 105 °F (1930)
Min Temperature 73 °F 71 °F 60 °F (1900)
Cooling Degree Days 14    
Growing Degree Days 28 (Base 50)    
Moisture  
Dew Point 73 °F    
Average Humidity 88    
Maximum Humidity 100    
Minimum Humidity 67    
Precipitation  
Precipitation 0.35 in - - ()
Sea Level Pressure  
Sea Level Pressure 29.92 in    
Wind  
Wind Speed 11 mph (ESE)    
Max Wind Speed 20 mph    
Max Gust Speed 29 mph    
Visibility 8 miles    
Events Rain    
Averages and records for this station are not official NWS values.
T = Trace of Precipitation, MM = Missing Value Source: NWS Daily Summary

Daily Weather History Graph

Daily Weather History Graph

Search for Another Location

Airport or City:

Astronomy

Jul. 13, 2019 Rise Set
Actual Time 6:03 AM CDT 8:09 PM CDT
Civil Twilight 5:35 AM CDT 8:37 PM CDT
Nautical Twilight 5:01 AM CDT 9:11 PM CDT
Astronomical Twilight 4:25 AM CDT 9:47 PM CDT
Moon 5:33 PM CDT (7/13) 3:20 AM CDT (7/13)
Length of Visible Light 15h 01m
Length of Day
14h 06m
Waxing Gibbous, 90% of the Moon is Illuminated
Jul 13
Waxing Gibbous
Jul 16
Full
Jul 24
Last Quarter
Jul 31
New
Aug 7
First Quarter

Hourly Weather History & Observations

Time (CDT) Temp. Heat Index Dew Point Humidity Pressure Visibility Wind Dir Wind Speed Gust Speed Precip Events Conditions
12:53 AM 80.1 °F 85.1 °F 75.0 °F 85% 29.83 in 10.0 mi ESE 10.4 mph - N/A   Clear
1:53 AM 79.0 °F - 73.0 °F 82% 29.82 in 10.0 mi ESE 11.5 mph 17.3 mph N/A   Clear
2:53 AM 78.1 °F - 73.0 °F 84% 29.81 in 10.0 mi East 12.7 mph 18.4 mph N/A   Scattered Clouds
3:02 AM 78.1 °F - 73.0 °F 84% 29.83 in 10.0 mi ESE 9.2 mph - N/A   Mostly Cloudy
3:53 AM 78.1 °F - 73.9 °F 87% 29.81 in 10.0 mi ESE 9.2 mph - N/A   Mostly Cloudy
4:07 AM 77.0 °F - 73.9 °F 90% 29.83 in 10.0 mi ESE 9.2 mph - N/A   Scattered Clouds
4:53 AM 77.0 °F - 73.9 °F 90% 29.82 in 10.0 mi ESE 10.4 mph - N/A   Mostly Cloudy
5:05 AM 77.0 °F - 73.9 °F 90% 29.84 in 10.0 mi ESE 9.2 mph - N/A   Scattered Clouds
5:53 AM 78.1 °F - 73.9 °F 87% 29.83 in 10.0 mi East 10.4 mph - N/A   Scattered Clouds
6:08 AM 78.1 °F - 73.9 °F 87% 29.85 in 10.0 mi East 9.2 mph 18.4 mph N/A   Mostly Cloudy
6:53 AM 79.0 °F - 73.9 °F 84% 29.84 in 10.0 mi East 11.5 mph - N/A   Scattered Clouds
7:33 AM 79.0 °F - 73.9 °F 84% 29.89 in 10.0 mi ESE 17.3 mph 21.9 mph N/A   Mostly Cloudy
7:53 AM 80.1 °F 84.5 °F 73.9 °F 81% 29.88 in 10.0 mi ESE 11.5 mph - N/A   Overcast
8:22 AM 81.0 °F 86.2 °F 73.9 °F 79% 29.91 in 10.0 mi ESE 13.8 mph 19.6 mph N/A   Overcast
8:29 AM 81.0 °F 86.2 °F 73.9 °F 79% 29.91 in 10.0 mi ESE 12.7 mph - N/A   Overcast
8:53 AM 82.0 °F 87.4 °F 73.0 °F 74% 29.89 in 10.0 mi ESE 9.2 mph 20.7 mph N/A   Scattered Clouds
9:53 AM 82.9 °F 88.0 °F 72.0 °F 69% 29.91 in 10.0 mi SE 13.8 mph 23.0 mph N/A   Overcast
10:53 AM 84.0 °F 89.6 °F 72.0 °F 67% 29.92 in 10.0 mi ESE 16.1 mph - N/A   Mostly Cloudy
11:53 AM 84.0 °F 90.2 °F 73.0 °F 69% 29.92 in 10.0 mi East 19.6 mph 24.2 mph 0.00 in   Partly Cloudy
12:53 PM 82.0 °F 87.4 °F 73.0 °F 74% 29.93 in 10.0 mi ESE 18.4 mph 27.6 mph 0.00 in   Mostly Cloudy
1:53 PM 82.0 °F 87.4 °F 73.0 °F 74% 29.91 in 10.0 mi ESE 12.7 mph 25.3 mph N/A   Mostly Cloudy
2:05 PM 82.0 °F 87.4 °F 73.0 °F 74% 29.94 in 10.0 mi ESE 18.4 mph 24.2 mph N/A   Overcast
2:28 PM 81.0 °F 85.8 °F 73.0 °F 77% 29.95 in 10.0 mi ESE 13.8 mph 21.9 mph N/A   Overcast
2:46 PM 77.0 °F - 73.9 °F 90% 29.96 in 1.8 mi ESE 13.8 mph 28.8 mph 0.02 in Rain Rain
2:53 PM 75.9 °F - 75.0 °F 97% 29.94 in 1.8 mi SE 12.7 mph 20.7 mph 0.04 in Rain Rain
2:59 PM 75.9 °F - 73.9 °F 94% 29.96 in 3.0 mi SE 9.2 mph - 0.00 in Rain Light Rain
3:09 PM 75.0 °F - 73.9 °F 96% 29.96 in 2.5 mi SE 10.4 mph - 0.02 in Rain Rain
3:23 PM 75.0 °F - 73.0 °F 94% 29.97 in 8.0 mi SSE 6.9 mph - 0.03 in Rain Light Rain
3:38 PM 73.9 °F - 73.9 °F 100% 29.97 in 2.0 mi SSE 6.9 mph - 0.08 in Rain Light Rain
3:45 PM 73.9 °F - 73.9 °F 100% 29.97 in 1.0 mi SE 6.9 mph - 0.15 in Rain Heavy Rain
3:53 PM 73.9 °F - 73.9 °F 100% 29.94 in 1.2 mi ENE 8.1 mph - 0.19 in Rain Rain
3:59 PM 75.0 °F - 73.9 °F 96% 29.96 in 3.0 mi East 6.9 mph - 0.00 in Rain Light Rain
4:22 PM 75.9 °F - 75.0 °F 97% 29.96 in 10.0 mi East 8.1 mph - 0.00 in   Overcast
4:53 PM 77.0 °F - 73.9 °F 90% 29.93 in 10.0 mi East 10.4 mph - 0.00 in   Mostly Cloudy
5:53 PM 75.9 °F - 73.9 °F 94% 29.95 in 10.0 mi ESE 9.2 mph - 0.00 in Rain Light Rain
6:53 PM 75.9 °F - 73.0 °F 91% 29.95 in 10.0 mi East 9.2 mph - 0.01 in   Mostly Cloudy
7:53 PM 75.9 °F - 72.0 °F 87% 29.94 in 10.0 mi East 11.5 mph - N/A   Clear
8:53 PM 75.9 °F - 72.0 °F 87% 29.94 in 10.0 mi ESE 12.7 mph - N/A   Mostly Cloudy
9:53 PM 73.9 °F - 73.0 °F 97% 29.96 in 5.0 mi ESE 12.7 mph 24.2 mph 0.01 in Rain Rain
10:04 PM 73.9 °F - 73.0 °F 97% 29.99 in 10.0 mi SSE 8.1 mph - 0.00 in   Overcast
10:24 PM 73.9 °F - 73.0 °F 97% 30.00 in 4.0 mi ESE 9.2 mph - 0.03 in Rain Rain
10:53 PM 73.9 °F - 73.0 °F 97% 29.97 in 5.0 mi East 9.2 mph - 0.09 in Rain Light Rain
11:07 PM 73.9 °F - 73.0 °F 97% 30.01 in 10.0 mi ESE 12.7 mph 20.7 mph 0.01 in   Overcast
11:20 PM 73.9 °F - 73.0 °F 97% 30.01 in 10.0 mi ESE 11.5 mph 21.9 mph 0.01 in   Scattered Clouds
11:53 PM 73.9 °F - 73.0 °F 97% 29.97 in 10.0 mi ESE 6.9 mph - 0.01 in   Partly Cloudy